Regional Weather Roundup
Issued by NWS

Home | Current Version | Previous Version | Text Only | Print | Product List | Glossary Off
Versions: 1 2 3 4 5 6 7 8 9 10 11 12 13 14 15 16 17 18 19 20 21 22 23 24 25 26 27 28 29 30 31 32 33 34 35 36 37 38 39 40 41 42 43 44 45 46 47 48 49 50

000
ASUS43 KIND 260709
RWRIN

WEATHER ROUNDUP FOR INDIANA
NATIONAL WEATHER SERVICE INDIANAPOLIS IN
200 AM EST MON JAN 26 2015

NOTE: "FAIR" INDICATES FEW OR NO CLOUDS BELOW 12,000 FEET WITH NO
SIGNIFICANT WEATHER AND/OR OBSTRUCTIONS TO VISIBILITY.

* - STATION DOES NOT REPORT WEATHER SUCH AS PRECIPITATION OR FOG.

+ - STATION NOT QUALITY CONTROLLED BY THE NATIONAL WEATHER SERVICE.
    USE DATA WITH CAUTION...ESPECIALLY DEWPOINT AND RELATIVE
    HUMIDITY OBSERVATIONS.

INZ001>003-010>013-019-020-260800-
NORTHWEST INDIANA

CITY           SKY/WX    TMP DP  RH WIND       PRES   REMARKS
GARY /AIRPORT/ CLOUDY    25  15  64 NE8       29.98S WCI  17
KNOX *+        CLEAR     17   4  54 N8        29.95R WCI   7
LA PORTE +     PTCLDY    17  13  81 NE7       29.96S WCI   8
MICHIGAN CITY+ CLEAR     18   9  68 NE3       29.98R
MONTICELLO +   CLOUDY    24  18  78 NE8       29.91F WCI  15
RENSSELAER +   CLEAR     23  21  93 N7        29.94S WCI  15
VALPARAISO     CLEAR     16  11  80 N6        29.96R WCI   7

$$

LMZ046-743>745-260800-
SOUTHERN LAKE MICHIGAN

STATION/POSITION TIME  TEMP WIND        PRES
                       AIR  DIR/SP/G
                 (UTC) (F)  (DEG/KT/KT) (MB)
MICHIGAN CITY    0700   20   40/ 14/ 17   N/A

$$

INZ004-005-014>016-021>024-260800-
NORTH CENTRAL INDIANA

CITY           SKY/WX    TMP DP  RH WIND       PRES   REMARKS
GOSHEN         CLEAR     16   7  67 N10       29.94S WCI   4
LOGANSPORT +   CLOUDY    23  19  86 N6        29.92S WCI  16
PERU/GRISSOM   CLOUDY    22  15  75 NE8       29.89S WCI  12
ROCHESTER +    CLOUDY    27  16  63 NE7       29.92S WCI  19
SOUTH BEND     CLEAR     17   9  70 NE9       29.95S WCI   6
WARSAW +         N/A     21  10  63 MISG        N/A

$$

INZ006>009-017-018-025>027-260800-
NORTHEAST INDIANA

CITY           SKY/WX    TMP DP  RH WIND       PRES   REMARKS
ANGOLA *+      CLEAR     14   7  73 NE6       29.90F WCI   5
AUBURN +       CLOUDY    19  10  68 NE9G16    29.92S WCI   9
FORT WAYNE     CLOUDY    20  11  68 NE14G20   29.91S WCI   7
HUNTINGTON +   CLOUDY    19   8  60 NE9       29.90S WCI   9

$$

INZ028-029-035-036-043>045-051>053-260800-
WEST CENTRAL INDIANA

CITY           SKY/WX    TMP DP  RH WIND       PRES   REMARKS
GREENCASTLE +  CLOUDY    25  18  74 N12G20    29.88S WCI  14
LAFAYETTE      CLOUDY    24  19  81 N8        29.93R WCI  15
TERRE HAUTE    CLOUDY    27  21  78 N9        29.91R WCI  18

$$

INZ030>032-037>040-046>048-054>057-064-065-260800-
CENTRAL INDIANA

CITY           SKY/WX    TMP DP  RH WIND       PRES   REMARKS
CP ATTERBURY + CLOUDY    23  19  86 N15G21    29.85S WCI  10
INDIANAPOLIS   CLOUDY    20  16  84 N16G23    29.87R WCI   6
-EAGLE CREEK   CLOUDY    21  17  84 N10G18    29.87R WCI  10
KOKOMO *+      CLOUDY    21  16  79 NE13      29.89F WCI   9
MARION +       CLOUDY    20  14  77 NE13G22   29.89S WCI   7
MT COMFORT *+  CLOUDY    21  12  68 N16       29.86R WCI   7
SHELBYVILLE    CLOUDY    23  17  78 N14G21    29.83S WCI  11
ZIONSVILLE +   CLOUDY    22  16  77 N18       29.88S WCI   8

$$

INZ033-034-041-042-049-050-058-059-260800-
EAST CENTRAL INDIANA

CITY           SKY/WX    TMP DP  RH WIND       PRES   REMARKS
MUNCIE         CLOUDY    19  14  81 NE16      29.85S WCI   4

$$

INZ060-061-067>069-081>083-085>088-260800-
SOUTHWEST INDIANA

CITY           SKY/WX    TMP DP  RH WIND       PRES   REMARKS
EVANSVILLE     CLOUDY    32  27  81 N17G26    29.88R WCI  21
HUNTINGBURG *+ CLOUDY    28  23  80 N12G24    29.84R WCI  18
WASHINGTON +   CLOUDY    28  21  76 N18G25    29.87R WCI  15

$$

INZ062-063-066-070>080-084-089>092-260800-
SOUTH CENTRAL AND SOUTHEAST INDIANA

CITY           SKY/WX    TMP DP  RH WIND       PRES   REMARKS
BLOOMINGTON    CLOUDY    24  20  84 N13       29.84R WCI  12

$$




USA.gov is the U.S. government's official web portal to all federal, state and local government web resources and services.